Regional Weather Roundup
Issued by NWS

Home | Current Version | Previous Version | Graphics & Text | Print | Product List | Glossary On
Versions: 1 2 3 4 5 6 7 8 9 10 11 12 13 14 15 16 17 18 19 20 21 22 23 24 25 26 27 28 29 30 31 32 33 34 35 36 37 38 39 40 41 42 43 44 45 46 47 48 49 50
000
ASUS43 KLMK 191902
RWRKY
KENTUCKY REGIONAL WEATHER ROUNDUP
NATIONAL WEATHER SERVICE LOUISVILLE KY
200 PM EST THU JAN 19 2017

NOTE "FAIR" INDICATES FEW OR NO CLOUDS BELOW 12,000 FEET
WITH NO SIGNIFICANT WEATHER AND/OR OBSTRUCTIONS TO VISIBILITY.

KYZ001>023-026-027-061>063-070>075-192000-
WESTERN AND SOUTH CENTRAL KENTUCKY

CITY           SKY/WX    TMP DP  RH WIND       PRES   REMARKS
PADUCAH        LGT RAIN  54  51  90 SE8       29.79F
HENDERSON      CLOUDY    48  45  87 SE6       29.84F
OWENSBORO      CLOUDY    52  47  83 SE7       29.85F
HOPKINSVILLE   LGT RAIN  53  53 100 CALM      29.83F FOG
BOWLING GREEN  CLOUDY    55  52  89 E7        29.87F
GLASGOW        NOT AVBL
$$

KYZ024-025-028>034-038-045-046-053-192000-
NORTH CENTRAL KENTUCKY

CITY           SKY/WX    TMP DP  RH WIND       PRES   REMARKS
LOUISVILLE/SDF CLOUDY    54  38  54 SE10      29.91F
LOUISVILLE/LOU CLOUDY    54  38  54 SE8       29.92F
FORT KNOX      CLOUDY    51  42  72 E6        29.89F
$$

KYZ035>037-039>044-047>052-055>060-089>105-192000-
NORTHEAST KENTUCKY

CITY           SKY/WX    TMP DP  RH WIND       PRES   REMARKS
LEXINGTON      PTSUNNY   56  35  45 SE10      29.94F
COVINGTON      CLOUDY    48  40  73 SE5       29.96F
FRANKFORT      CLOUDY    55  36  48 VRB7      29.93F
$$

KYZ054-064>069-076>088-106>120-192000-
SOUTHEAST KENTUCKY

CITY           SKY/WX    TMP DP  RH WIND       PRES   REMARKS
JACKSON        CLOUDY    52  39  61 CALM      29.97F
LONDON         LGT RAIN  51  44  77 S5        29.97F
SOMERSET       HVY RAIN  46  46 100 SE3       29.97F
MIDDLESBORO    LGT RAIN  53  46  79 S5        30.00F
MONTICELLO     LGT RAIN  52  50  93 SE7       29.96F
$$





USA.gov is the U.S. government's official web portal to all federal, state and local government web resources and services.